Weather History for Pensacola NAS, FL

Change the Weather History Date:

Tuesday, December 4, 2012

  Actual Average Record
Temperature  
Mean Temperature 68 °F -  
Max Temperature 75 °F 64 °F 82 °F (2002)
Min Temperature 59 °F 47 °F 33 °F (2000)
Cooling Degree Days 3    
Growing Degree Days 18 (Base 50)    
Moisture  
Dew Point 64 °F    
Average Humidity 91    
Maximum Humidity 100    
Minimum Humidity 71    
Precipitation  
Precipitation 0.00 in - - ()
Sea Level Pressure  
Sea Level Pressure 30.22 in    
Wind  
Wind Speed 5 mph (SE)    
Max Wind Speed 12 mph    
Max Gust Speed -    
Visibility 10 miles    
Events      
Averages and records for this station are not official NWS values.
T = Trace of Precipitation, MM = Missing Value Source: NWS Daily Summary

Daily Weather History Graph

Daily Weather History Graph

Search for Another Location

Airport:

Trip Planner

Search our weather history database for the weather conditions in past years. The results will help you decide how hot, cold, wet, or windy it might be!

Date:

Astronomy

Dec. 04, 2012 Rise Set
Actual Time 6:31 AM CST 4:48 PM CST
Civil Twilight 6:04 AM CST 5:14 PM CST
Nautical Twilight 5:35 AM CST 5:44 PM CST
Astronomical Twilight 5:05 AM CST 6:13 PM CST
Moon 10:19 PM CST (12/4) 10:39 AM CST (12/4)
Length of Visible Light 11h 09m
Length of Day
10h 17m
Waning Gibbous, 69% of the Moon is Illuminated
Dec 4
Waning Gibbous
Dec 6
Last Quarter
Dec 13
New
Dec 19
First Quarter
Dec 28
Full

Hourly Weather History & Observations

Time (CST) Temp. Dew Point Humidity Pressure Visibility Wind Dir Wind Speed Gust Speed Precip Events Conditions
12:56 AM 62.1 °F 62.1 °F 100% 30.20 in 10.0 mi SSE 4.6 mph - 0.00 in   Partly Cloudy
1:56 AM 61.0 °F 61.0 °F 100% 30.20 in 10.0 mi Calm Calm - N/A   Partly Cloudy
2:56 AM 64.9 °F 64.0 °F 97% 30.20 in 10.0 mi SSE 5.8 mph - 0.00 in   Clear
3:56 AM 64.0 °F 64.0 °F 100% 30.19 in 10.0 mi South 5.8 mph - N/A   Clear
4:56 AM 66.0 °F 64.9 °F 96% 30.20 in 10.0 mi SE 5.8 mph - 0.00 in   Clear
5:56 AM 61.0 °F 61.0 °F 100% 30.22 in 7.0 mi Calm Calm - N/A   Mostly Cloudy
6:56 AM 61.0 °F 61.0 °F 100% 30.24 in 7.0 mi ENE 3.5 mph - N/A   Mostly Cloudy
7:11 AM 62.6 °F 62.6 °F 100% 30.24 in 10.0 mi Calm Calm - N/A   Mostly Cloudy
7:41 AM 66.2 °F 64.4 °F 94% 30.25 in 10.0 mi ENE 3.5 mph - N/A   Mostly Cloudy
7:56 AM 66.9 °F 66.0 °F 97% 30.26 in 10.0 mi East 4.6 mph - N/A   Mostly Cloudy
8:56 AM 69.1 °F 66.9 °F 93% 30.27 in 10.0 mi East 4.6 mph - N/A   Mostly Cloudy
9:56 AM 72.0 °F 66.0 °F 81% 30.27 in 10.0 mi SSE 10.4 mph - N/A   Mostly Cloudy
10:56 AM 75.9 °F 66.0 °F 71% 30.26 in 10.0 mi SSE 11.5 mph - N/A   Mostly Cloudy
11:56 AM 75.0 °F 66.0 °F 73% 30.25 in 10.0 mi SSE 10.4 mph - N/A   Mostly Cloudy
12:56 PM 75.9 °F 66.0 °F 71% 30.23 in 10.0 mi South 9.2 mph - N/A   Mostly Cloudy
1:56 PM 73.9 °F 66.0 °F 76% 30.21 in 10.0 mi South 8.1 mph - N/A   Mostly Cloudy
2:56 PM 73.9 °F 66.0 °F 76% 30.20 in 10.0 mi SSE 9.2 mph - N/A   Mostly Cloudy
3:56 PM 72.0 °F 64.9 °F 78% 30.21 in 10.0 mi SSE 6.9 mph - N/A   Mostly Cloudy
4:56 PM 68.0 °F 64.9 °F 90% 30.20 in 10.0 mi SSE 6.9 mph - N/A   Mostly Cloudy
5:56 PM 68.0 °F 64.9 °F 90% 30.20 in 10.0 mi SSE 9.2 mph - N/A   Mostly Cloudy
6:56 PM 66.9 °F 64.0 °F 90% 30.19 in 10.0 mi SSE 8.1 mph - N/A   Scattered Clouds
7:56 PM 64.9 °F 64.0 °F 97% 30.20 in 10.0 mi SSE 3.5 mph - N/A   Scattered Clouds
8:56 PM 64.9 °F 63.0 °F 93% 30.20 in 10.0 mi SSE 4.6 mph - N/A   Scattered Clouds
9:56 PM 64.9 °F 63.0 °F 93% 30.19 in 10.0 mi SE 5.8 mph - N/A   Clear
10:56 PM 62.1 °F 62.1 °F 100% 30.19 in 10.0 mi Calm Calm - N/A   Clear
11:56 PM 59.0 °F 59.0 °F 100% 30.17 in 10.0 mi Calm Calm - N/A   Clear